DW1289 Weather Reports


Display with metric or nautical units.
time (UTC)temp
F
wind
direction
speed
MPH
gust
MPH
rain 1hr
in
rain 24hr
in
rain mn
in
humidity
%
barometer
mb
20260904194016 102 270 2.0 7.0 0.00 0.00 0.00 43 1014.7
20260904193016 102 248 2.0 8.0 0.00 0.00 0.00 43 1015.0
20260904192016 102 248 2.0 8.0 0.00 0.00 0.00 41 1015.1
20260904191016 102 338 2.0 7.0 0.00 0.00 0.00 44 1015.4
20260904190016 102 248 2.0 8.0 0.00 0.00 0.00 44 1015.4
20260904185016 102 248 2.0 8.0 0.00 0.00 0.00 45 1015.5
20260904184016 101 248 4.0 10.0 0.00 0.00 0.00 45 1015.6
20260904183016 101 248 4.0 10.0 0.00 0.00 0.00 46 1015.7
20260904182016 101 248 4.0 10.0 0.00 0.00 0.00 47 1015.9
20260904181016 101 248 4.0 10.0 0.00 0.00 0.00 45 1015.9
20260904180016 101 248 3.0 9.0 0.00 0.00 0.00 47 1016.1
20260904175016 100 248 4.0 10.0 0.00 0.00 0.00 45 1016.2
20260904174016 100 248 3.0 8.0 0.00 0.00 0.00 48 1016.2
20260904173016 100 248 3.0 9.0 0.00 0.00 0.00 46 1016.4
20260904172016 100 248 4.0 9.0 0.00 0.00 0.00 48 1016.4
20260904171036 100 248 3.0 9.0 0.00 0.00 0.00 48 1016.4
20260904170016 100 248 2.0 7.0 0.00 0.00 0.00 49 1016.4
20260904165016 99 45 2.0 7.0 0.00 0.00 0.00 48 1016.5
20260904164036 99 248 2.0 8.0 0.00 0.00 0.00 49 1016.5
20260904163016 99 248 3.0 8.0 0.00 0.00 0.00 50 1016.4
20260904162016 99 248 3.0 8.0 0.00 0.00 0.00 49 1016.4
20260904161016 98 248 2.0 7.0 0.00 0.00 0.00 50 1016.5
20260904160036 97 248 3.0 9.0 0.00 0.00 0.00 53 1016.5
20260904155016 97 248 3.0 9.0 0.00 0.00 0.00 54 1016.6
20260904154036 96 270 2.0 5.0 0.00 0.00 0.00 54 1016.5
20260904153016 95 248 2.0 6.0 0.00 0.00 0.00 57 1016.6
20260904152016 94 225 2.0 4.0 0.00 0.00 0.00 62 1016.7
20260904151016 93 248 1.0 5.0 0.00 0.00 0.00 64 1016.7
20260904150016 92 270 1.0 5.0 0.00 0.00 0.00 66 1016.7
20260904145016 91 0.0 0.0 0.00 0.00 0.00 68 1016.7
20260904144016 90 0.0 0.0 0.00 0.00 0.00 69 1016.8
20260904143016 88 0.0 2.0 0.00 0.00 0.00 72 1016.8
20260904142056 87 248 1.0 4.0 0.00 0.00 0.00 73 1016.6
20260904141016 86 180 1.0 3.0 0.00 0.00 0.00 77 1016.6
20260904140016 84 0.0 2.0 0.00 0.00 0.00 79 1016.6
20260904135016 83 0.0 2.0 0.00 0.00 0.00 83 1016.6
20260904134016 81 0.0 1.0 0.00 0.00 0.00 86 1016.6
20260904133036 80 0.0 2.0 0.00 0.00 0.00 89 1016.5
20260904132016 79 0.0 1.0 0.00 0.00 0.00 92 1016.6
20260904131016 78 0.0 3.0 0.00 0.00 0.00 93 1016.3
20260904130036 77 0.0 0.0 0.00 0.00 0.00 94 1016.4
20260904125016 76 0.0 0.0 0.00 0.00 0.00 93 1016.4
20260904124016 76 0.0 0.0 0.00 0.00 0.00 94 1016.3
20260904123016 75 0.0 0.0 0.00 0.00 0.00 94 1016.1
20260904122016 75 0.0 0.0 0.00 0.00 0.00 93 1016.1
20260904121036 75 0.0 3.0 0.00 0.00 0.00 93 1016.1
20260904120016 74 0.0 0.0 0.00 0.00 0.00 93 1016.1
20260904115016 74 0.0 0.0 0.00 0.00 0.00 92 1016.1
20260904114016 74 0.0 0.0 0.00 0.00 0.00 92 1015.9
20260904113016 74 0.0 0.0 0.00 0.00 0.00 92 1016.0
20260904112016 74 0.0 0.0 0.00 0.00 0.00 92 1015.8
20260904111016 74 0.0 0.0 0.00 0.00 0.00 91 1015.8
20260904110016 74 0.0 0.0 0.00 0.00 0.00 91 1015.7
20260904105016 74 0.0 0.0 0.00 0.00 0.00 91 1015.6
20260904104016 74 0.0 0.0 0.00 0.00 0.00 91 1015.7
20260904103016 74 0.0 0.0 0.00 0.00 0.00 91 1015.5
20260904102036 74 0.0 0.0 0.00 0.00 0.00 90 1015.5
20260904101016 74 0.0 0.0 0.00 0.00 0.00 91 1015.5
20260904100016 74 0.0 0.0 0.00 0.00 0.00 90 1015.6
20260904095016 74 0.0 0.0 0.00 0.00 0.00 90 1015.5
20260904094016 74 0.0 0.0 0.00 0.00 0.00 90 1015.5
20260904093036 75 0.0 0.0 0.00 0.00 0.00 90 1015.4
20260904092016 75 0.0 0.0 0.00 0.00 0.00 90 1015.5
20260904091016 75 0.0 0.0 0.00 0.00 0.00 90 1015.5
20260904090016 75 0.0 0.0 0.00 0.00 0.00 90 1015.5
20260904085016 75 0.0 0.0 0.00 0.00 0.00 90 1015.5
20260904084016 75 0.0 0.0 0.00 0.00 0.00 90 1015.4
20260904083016 75 0.0 0.0 0.00 0.00 0.00 89 1015.4
20260904082016 75 0.0 0.0 0.00 0.00 0.00 89 1015.3
20260904081016 75 0.0 0.0 0.00 0.00 0.00 89 1015.3
20260904080036 76 0.0 0.0 0.00 0.00 0.00 89 1015.3
20260904075016 76 0.0 0.0 0.00 0.00 0.00 89 1015.3
20260904074036 76 0.0 0.0 0.00 0.00 0.00 89 1015.1
20260904073036 76 0.0 0.0 0.00 0.00 0.00 88 1015.1
20260904072016 76 0.0 0.0 0.00 0.00 0.00 88 1015.0
20260904071016 77 0.0 0.0 0.00 0.00 0.00 88 1015.2
20260904070016 77 0.0 0.0 0.00 0.00 0.00 87 1015.2
20260904065016 77 0.0 0.0 0.00 0.00 0.00 87 1015.3
20260904064016 77 0.0 0.0 0.00 0.00 0.00 87 1015.5
20260904063016 77 0.0 0.0 0.00 0.00 0.00 87 1015.2
20260904062016 78 0.0 0.0 0.00 0.00 0.00 87 1015.4
20260904061016 78 0.0 0.0 0.00 0.00 0.00 86 1015.3
20260904060016 78 0.0 0.0 0.00 0.00 0.00 86 1015.4
20260904055016 78 0.0 0.0 0.00 0.00 0.00 85 1015.5
20260904054016 78 0.0 0.0 0.00 0.00 0.00 85 1015.5
20260904053036 79 0.0 0.0 0.00 0.00 0.00 85 1015.5
20260904052016 79 0.0 0.0 0.00 0.00 0.00 84 1015.7
20260904051016 79 0.0 0.0 0.00 0.00 0.00 83 1015.6
20260904050016 79 0.0 0.0 0.00 0.00 0.00 84 1015.7
20260904045016 79 0.0 0.0 0.00 0.00 0.00 84 1015.7
20260904044036 79 0.0 0.0 0.00 0.00 0.00 83 1015.7
20260904043016 80 0.0 0.0 0.00 0.00 0.00 83 1015.7
20260904042016 80 0.0 0.0 0.00 0.00 0.00 83 1015.6
20260904041016 80 0.0 0.0 0.00 0.00 0.00 82 1015.7
20260904040036 80 0.0 0.0 0.00 0.00 0.00 81 1015.5
20260904035036 81 0.0 0.0 0.00 0.00 0.00 81 1015.6
20260904034017 81 0.0 0.0 0.00 0.00 0.00 81 1015.7
20260904033016 81 0.0 0.0 0.00 0.00 0.00 80 1015.7
20260904032016 81 0.0 1.0 0.00 0.00 0.00 80 1015.8
20260904031016 82 0.0 0.0 0.00 0.00 0.00 80 1015.7
20260904030016 82 0.0 0.0 0.00 0.00 0.00 79 1015.6
20260904025016 82 0.0 0.0 0.00 0.00 0.00 78 1015.7
20260904024016 83 0.0 0.0 0.00 0.00 0.00 77 1015.7
20260904023016 83 0.0 0.0 0.00 0.00 0.00 76 1015.7
20260904022016 83 0.0 0.0 0.00 0.00 0.00 75 1015.6
20260904021036 84 0.0 0.0 0.00 0.00 0.00 75 1015.7
20260904020016 84 0.0 0.0 0.00 0.00 0.00 74 1015.6
20260904015036 85 0.0 0.0 0.00 0.00 0.00 74 1015.5
20260904014036 85 0.0 0.0 0.00 0.00 0.00 73 1015.5
20260904013016 86 0.0 0.0 0.00 0.00 0.00 72 1015.4
20260904012016 86 0.0 0.0 0.00 0.00 0.00 70 1015.2
20260904011016 86 0.0 0.0 0.00 0.00 0.00 69 1015.0
20260904010016 87 0.0 0.0 0.00 0.00 0.00 69 1015.0
20260904005016 87 0.0 0.0 0.00 0.00 0.00 69 1014.9
20260904004016 87 0.0 0.0 0.00 0.00 0.00 70 1014.7
20260904003016 88 0.0 1.0 0.00 0.00 0.00 70 1014.6
20260904002016 88 0.0 0.0 0.00 0.00 0.00 68 1014.4
20260904001016 89 0.0 0.0 0.00 0.00 0.00 63 1014.3
20260904000016 90 0.0 0.0 0.00 0.00 0.00 62 1014.3
20260903235036 91 0.0 1.0 0.00 0.00 0.00 60 1014.3
20260903234016 92 0.0 2.0 0.00 0.00 0.00 56 1014.2
20260903233036 94 248 1.0 4.0 0.00 0.00 0.00 53 1014.3
20260903232016 94 248 1.0 3.0 0.00 0.00 0.00 51 1014.2
20260903231016 95 248 2.0 3.0 0.00 0.00 0.00 50 1014.3
20260903230016 95 248 2.0 4.0 0.00 0.00 0.00 50 1014.2
20260903225016 96 248 2.0 4.0 0.00 0.00 0.00 48 1014.2
20260903224016 96 248 2.0 4.0 0.00 0.00 0.00 47 1014.2
20260903223016 96 248 2.0 7.0 0.00 0.00 0.00 48 1014.2
20260903222036 96 248 1.0 4.0 0.00 0.00 0.00 48 1014.2
20260903221016 97 248 2.0 5.0 0.00 0.00 0.00 47 1014.1
20260903220016 97 248 3.0 8.0 0.00 0.00 0.00 47 1014.1
20260903215016 97 248 3.0 7.0 0.00 0.00 0.00 46 1014.1
20260903214016 97 248 3.0 7.0 0.00 0.00 0.00 46 1014.3
20260903213016 98 248 3.0 7.0 0.00 0.00 0.00 46 1014.5
20260903212016 98 248 3.0 7.0 0.00 0.00 0.00 47 1014.6
20260903211036 98 248 3.0 7.0 0.00 0.00 0.00 46 1014.8
20260903210016 98 248 3.0 7.0 0.00 0.00 0.00 46 1014.9
20260903205016 98 248 2.0 6.0 0.00 0.00 0.00 46 1014.9
20260903204016 98 248 2.0 5.0 0.00 0.00 0.00 48 1015.0
20260903203016 98 248 4.0 9.0 0.00 0.00 0.00 46 1015.2
20260903202016 98 248 3.0 5.0 0.00 0.00 0.00 48 1015.1
20260903201016 98 158 2.0 5.0 0.00 0.00 0.00 47 1015.4
20260903200016 98 248 3.0 7.0 0.00 0.00 0.00 45 1015.5
20260903195016 98 248 2.0 8.0 0.00 0.00 0.00 50 1015.6